Starlink 6202

operational
NORAD ID: 56896 Int'l Des: 2023-083 Owner: SPXS Country: US Constellation: starlink
LEOCIRCULAR

About Starlink 6202

Description loading...

Live Position

Loading 3D Globe...

Upcoming Passes

Altitude History

Altitude vs Time

uPlot chart will show altitude changes over time

Two-Line Element Set

1 56896U 23083W 25347.00022211 -.00000270 00000-0 -49391-5 0 9991
2 56896 43.0023 192.5108 0001060 270.6770 89.3951 15.02533370138747
Epoch: Dec 13, 2025 • Age: 8 hours

Current Status

Altitude 562.7 km
Velocity 7.58 km/s
Sub-Earth Point -18.54°S, 30.39°W
Launch Date Jun 12, 2023
Age 2.5 years
Type internet

Technical Details

Classification Payload
Mass 305.00 kg
Dry Mass 290.00 kg
Total Mass 305.00 kg
Length 0.20 m
Diameter 2.80 m
Span 9.00 m
Shape Box + pan
Manufacturer SPXS
Bus Type Starlink
Phase Status In Orbit
Owner/State SPXS/US

Large Constellations

Loading constellations...